Location: Bermeries
(50.2863°N, 3.7551°E)
Time: 02:02:04
(UTC+00:00)

Cosmos 841 Rocket - Pass Details

Date: 23 May 2024
Orbit: 744 x 770 km, 74.0° (Epoch: 21 June)

Event Time Altitude Azimuth Distance (km) Brightness Sun altitude
Rises 02:05:51 0° 328° (NNW) 3,233 7.1 -12.3°
Reaches altitude 10° 02:08:28 10° 318° (NW) 2,307 6.2 -12.0°
Maximum altitude 02:12:57 30° 259° (W) 1,362 4.4 -11.6°
Enters shadow 02:16:26 15° 207° (SSW) 1,986 5.0 -11.3°
